Oxford, CT

1:02 AM EDT on March 27, 2017 (GMT -0400)
Waterbury-Oxford

Weather History for KOXC - August, 2012

Change the Weather History Date:

Monday, August 27, 2012

  Actual Average Record
Temperature  
Mean Temperature 68 °F -  
Max Temperature 78 °F 74 °F 86 °F (2014)
Min Temperature 57 °F 57 °F 48 °F (2008)
Cooling Degree Days 2    
Growing Degree Days 18 (Base 50)    
Moisture  
Dew Point 63 °F    
Average Humidity 85    
Maximum Humidity 94    
Minimum Humidity 65    
Precipitation  
Precipitation 0.00 in - - ()
Sea Level Pressure  
Sea Level Pressure 30.14 in    
Wind  
Wind Speed 3 mph (SSW)    
Max Wind Speed 16 mph    
Max Gust Speed 23 mph    
Visibility 10 miles    
Events Rain    
Averages and records for this station are not official NWS values.
T = Trace of Precipitation, MM = Missing Value Source: NWS Daily Summary

Daily Weather History Graph

Daily Weather History Graph

Search for Another Location

Airport or City:

Trip Planner

Search our weather history database for the weather conditions in past years. The results will help you decide how hot, cold, wet, or windy it might be!

Date:

Astronomy

Aug. 27, 2012 Rise Set
Actual Time 6:14 AM EDT 7:32 PM EDT
Civil Twilight 5:45 AM EDT 8:01 PM EDT
Nautical Twilight 5:10 AM EDT 8:36 PM EDT
Astronomical Twilight 4:34 AM EDT 9:12 PM EDT
Moon 4:52 PM EDT 1:52 AM EDT
Length of Visible Light 14h 16m
Length of Day
13h 18m
Waxing Gibbous, 82% of the Moon is Illuminated
Aug 27
Waxing Gibbous
Aug 31
Full
Sep 8
Last Quarter
Sep 15
New
Sep 22
First Quarter

Hourly Weather History & Observations

Time (EDT) Temp. Dew Point Humidity Pressure Visibility Wind Dir Wind Speed Gust Speed Precip Events Conditions
12:55 AM 59.0 °F 55.4 °F 88% 30.27 in 10.0 mi Calm Calm - N/A   Clear
1:15 AM 59.0 °F 57.2 °F 94% 30.26 in 10.0 mi Calm Calm - N/A   Clear
1:35 AM 59.0 °F 55.4 °F 88% 30.25 in 10.0 mi Calm Calm - N/A   Clear
1:56 AM 60.8 °F 57.2 °F 88% 30.24 in 10.0 mi Calm Calm - N/A   Clear
2:15 AM 60.8 °F 57.2 °F 88% 30.23 in 10.0 mi Calm Calm - N/A   Clear
2:35 AM 59.0 °F 55.4 °F 88% 30.24 in 10.0 mi Calm Calm - N/A   Clear
2:55 AM 59.0 °F 57.2 °F 94% 30.23 in 10.0 mi Calm Calm - N/A   Clear
3:15 AM 60.8 °F 57.2 °F 88% 30.24 in 10.0 mi Calm Calm - N/A   Clear
3:35 AM 59.0 °F 55.4 °F 88% 30.23 in 10.0 mi Calm Calm - N/A   Clear
3:55 AM 59.0 °F 55.4 °F 88% 30.23 in 10.0 mi Calm Calm - N/A   Clear
4:15 AM 57.2 °F 55.4 °F 94% 30.22 in 10.0 mi Calm Calm - N/A   Scattered Clouds
4:35 AM 59.0 °F 55.4 °F 88% 30.22 in 10.0 mi Calm Calm - N/A   Mostly Cloudy
4:55 AM 59.0 °F 57.2 °F 94% 30.22 in 10.0 mi Calm Calm - N/A   Overcast
5:15 AM 59.0 °F 57.2 °F 94% 30.22 in 10.0 mi Calm Calm - N/A   Overcast
5:35 AM 60.8 °F 57.2 °F 88% 30.22 in 10.0 mi Calm Calm - N/A   Mostly Cloudy
5:55 AM 60.8 °F 57.2 °F 88% 30.22 in 10.0 mi Calm Calm - N/A   Mostly Cloudy
6:45 AM 62.6 °F 60.8 °F 94% 30.22 in 10.0 mi ESE 3.5 mph - N/A   Mostly Cloudy
8:45 AM 68.0 °F 64.4 °F 88% 30.23 in 10.0 mi SSW 3.5 mph - N/A   Overcast
10:05 AM 73.4 °F 66.2 °F 78% 30.21 in 10.0 mi SSW 6.9 mph - N/A   Mostly Cloudy
10:45 AM 73.4 °F 66.2 °F 78% 30.21 in 10.0 mi South 9.2 mph - N/A   Mostly Cloudy
11:05 AM 75.2 °F 64.4 °F 69% 30.20 in 10.0 mi SW 6.9 mph - N/A   Scattered Clouds
11:45 AM 78.8 °F 66.2 °F 65% 30.18 in 10.0 mi SW 6.9 mph - N/A   Mostly Cloudy
1:45 PM 78.8 °F 66.2 °F 65% 30.14 in 10.0 mi South 10.4 mph - N/A   Mostly Cloudy
2:45 PM 78.8 °F 66.2 °F 65% 30.11 in 10.0 mi South 16.1 mph 23.0 mph N/A Rain Light Rain
3:12 PM 75.2 °F 66.2 °F 73% 30.11 in 10.0 mi SSW 8.1 mph 23.0 mph N/A   Mostly Cloudy
3:20 PM 75.2 °F 66.2 °F 73% 30.10 in 10.0 mi SSW 9.2 mph 18.4 mph N/A   Overcast
3:45 PM 73.4 °F 66.2 °F 78% 30.09 in 10.0 mi SSW 10.4 mph - N/A   Mostly Cloudy
4:45 PM 75.2 °F 66.2 °F 73% 30.08 in 10.0 mi South 11.5 mph - N/A   Mostly Cloudy
5:45 PM 75.2 °F 66.2 °F 73% 30.06 in 10.0 mi SSW 9.2 mph - N/A   Mostly Cloudy
7:45 PM 71.6 °F 66.2 °F 83% 30.04 in 10.0 mi South 8.1 mph - N/A   Overcast
8:19 PM 71.6 °F 68.0 °F 88% 30.04 in 10.0 mi SSW 5.8 mph - N/A   Overcast
8:45 PM 71.6 °F 68.0 °F 88% 30.03 in 10.0 mi SSW 6.9 mph - N/A   Overcast
8:55 PM 71.6 °F 68.0 °F 88% 30.03 in 10.0 mi SSW 6.9 mph - N/A   Overcast
9:15 PM 71.6 °F 68.0 °F 88% 30.03 in 10.0 mi SSW 6.9 mph - N/A   Overcast
9:35 PM 71.6 °F 68.0 °F 88% 30.03 in 10.0 mi SSW 8.1 mph - N/A   Overcast
9:55 PM 71.6 °F 68.0 °F 88% 30.02 in 10.0 mi South 5.8 mph - N/A   Overcast
10:15 PM 71.6 °F 69.8 °F 94% 30.01 in 10.0 mi SSW 4.6 mph - N/A   Overcast
10:35 PM 71.6 °F 69.8 °F 94% 30.01 in 10.0 mi SSW 6.9 mph - N/A   Overcast
10:55 PM 71.6 °F 69.8 °F 94% 30.01 in 10.0 mi SW 8.1 mph - N/A   Overcast
11:15 PM 71.6 °F 69.8 °F 94% 30.00 in 10.0 mi SSW 8.1 mph - N/A   Overcast
11:35 PM 73.4 °F 69.8 °F 88% 30.00 in 10.0 mi SSW 6.9 mph - N/A   Overcast
11:55 PM 73.4 °F 69.8 °F 88% 30.00 in 10.0 mi SSW 8.1 mph - N/A   Overcast